Météo par heure à Junno

Ce jour, 17 Juin, Jeudi

Heure Température Précipitation Vent Pression Humidité
00:00 +17°C° 0 mm 3 m/s 755 mmHg 87%
01:00 +17°C° 0 mm 3 m/s 755 mmHg 88%
02:00 +17°C° 0 mm 3 m/s 755 mmHg 89%
03:00 +17°C° 0 mm 3 m/s 755 mmHg 89%
04:00 +16°C° 0 mm 3 m/s 755 mmHg 90%
05:00 +18°C° 0 mm 3 m/s 755 mmHg 85%
06:00 +20°C° 0 mm 3 m/s 755 mmHg 80%
07:00 +22°C° 0 mm 3 m/s 755 mmHg 75%
08:00 +23°C° 0 mm 4 m/s 755 mmHg 70%
09:00 +26°C° 0 mm 4 m/s 755 mmHg 65%
10:00 +27°C° 0 mm 4 m/s 756 mmHg 60%
11:00 +28°C° 0 mm 4 m/s 756 mmHg 56%
12:00 +28°C° 0 mm 4 m/s 755 mmHg 53%
13:00 +29°C° 0 mm 4 m/s 755 mmHg 49%
14:00 +29°C° 0 mm 4 m/s 755 mmHg 50%
15:00 +29°C° 0 mm 4 m/s 755 mmHg 50%
16:00 +29°C° 0 mm 4 m/s 755 mmHg 50%
17:00 +28°C° 0 mm 4 m/s 755 mmHg 57%
18:00 +26°C° 0 mm 4 m/s 755 mmHg 64%
19:00 +25°C° 0 mm 4 m/s 755 mmHg 71%
20:00 +22°C° 0 mm 4 m/s 755 mmHg 71%
21:00 +21°C° 0 mm 4 m/s 755 mmHg 71%
22:00 +20°C° 0 mm 4 m/s 755 mmHg 71%
23:00 +19°C° 0 mm 4 m/s 755 mmHg 74%

Demain, 18 Juin, Vendredi

Heure Température Précipitation Vent Pression Humidité
00:00 +18°C° 0 mm 3 m/s 755 mmHg 77%
01:00 +18°C° 0 mm 3 m/s 755 mmHg 79%
02:00 +17°C° 0 mm 3 m/s 755 mmHg 80%
03:00 +17°C° 0 mm 3 m/s 755 mmHg 80%
04:00 +16°C° 0 mm 3 m/s 755 mmHg 81%
05:00 +18°C° 0 mm 4 m/s 755 mmHg 78%
06:00 +20°C° 0 mm 4 m/s 755 mmHg 75%
07:00 +21°C° 0 mm 5 m/s 755 mmHg 73%
08:00 +23°C° 0 mm 5 m/s 755 mmHg 68%
09:00 +26°C° 0 mm 5 m/s 755 mmHg 63%
10:00 +27°C° 0 mm 5 m/s 755 mmHg 58%
11:00 +28°C° 0 mm 5 m/s 754 mmHg 55%
12:00 +29°C° 0 mm 5 m/s 754 mmHg 52%
13:00 +30°C° 0 mm 5 m/s 754 mmHg 49%
14:00 +30°C° 0 mm 5 m/s 754 mmHg 49%
15:00 +30°C° 0 mm 4 m/s 754 mmHg 50%
16:00 +30°C° 0 mm 4 m/s 753 mmHg 51%
17:00 +29°C° 0 mm 4 m/s 753 mmHg 58%
18:00 +27°C° 0 mm 3 m/s 753 mmHg 64%
19:00 +26°C° 0 mm 3 m/s 753 mmHg 71%
20:00 +25°C° 0 mm 3 m/s 753 mmHg 73%
21:00 +22°C° 0 mm 3 m/s 754 mmHg 76%
22:00 +21°C° 0 mm 3 m/s 754 mmHg 78%
23:00 +21°C° 0 mm 3 m/s 754 mmHg 81%

Après-demain, 19 Juin, Samedi

Heure Température Précipitation Vent Pression Humidité
00:00 +20°C° 0 mm 3 m/s 754 mmHg 84%
01:00 +19°C° 0 mm 3 m/s 754 mmHg 87%
02:00 +19°C° 0 mm 3 m/s 753 mmHg 89%
03:00 +19°C° 0 mm 3 m/s 753 mmHg 90%
04:00 +18°C° 0 mm 3 m/s 753 mmHg 92%
05:00 +20°C° 0 mm 4 m/s 753 mmHg 86%
06:00 +22°C° 0 mm 4 m/s 754 mmHg 81%
07:00 +23°C° 0 mm 5 m/s 754 mmHg 75%
08:00 +26°C° 0 mm 5 m/s 754 mmHg 70%
09:00 +27°C° 0 mm 4 m/s 753 mmHg 64%
10:00 +29°C° 0 mm 4 m/s 753 mmHg 58%
11:00 +30°C° 0 mm 4 m/s 753 mmHg 55%
12:00 +30°C° 0 mm 4 m/s 753 mmHg 52%
13:00 +32°C° 0 mm 4 m/s 753 mmHg 49%
14:00 +32°C° 0 mm 4 m/s 753 mmHg 48%
15:00 +31°C° 0 mm 3 m/s 752 mmHg 47%
16:00 +31°C° 0 mm 3 m/s 752 mmHg 47%
17:00 +30°C° 0 mm 3 m/s 752 mmHg 54%
18:00 +29°C° 0 mm 3 m/s 752 mmHg 60%
19:00 +27°C° 0 mm 3 m/s 752 mmHg 67%
20:00 +26°C° 0 mm 3 m/s 752 mmHg 69%
21:00 +25°C° 0 mm 3 m/s 752 mmHg 71%
22:00 +22°C° 0 mm 3 m/s 752 mmHg 73%
23:00 +22°C° 0 mm 3 m/s 752 mmHg 77%

20 Juin, Dimanche

Heure Température Précipitation Vent Pression Humidité
00:00 +21°C° 0 mm 3 m/s 752 mmHg 81%
01:00 +20°C° 0 mm 3 m/s 752 mmHg 85%
02:00 +20°C° 0 mm 3 m/s 752 mmHg 88%
03:00 +20°C° 0 mm 3 m/s 752 mmHg 90%
04:00 +19°C° 0 mm 3 m/s 752 mmHg 92%
05:00 +20°C° 0 mm 4 m/s 752 mmHg 86%
06:00 +22°C° 0 mm 4 m/s 752 mmHg 80%
07:00 +23°C° 0 mm 5 m/s 752 mmHg 74%
08:00 +25°C° 0 mm 4 m/s 752 mmHg 68%
09:00 +27°C° 0 mm 4 m/s 752 mmHg 63%
10:00 +28°C° 0 mm 4 m/s 751 mmHg 57%
11:00 +29°C° 0 mm 5 m/s 751 mmHg 55%
12:00 +30°C° 0 mm 5 m/s 751 mmHg 52%
13:00 +30°C° 0 mm 5 m/s 750 mmHg 49%
14:00 +30°C° 0 mm 5 m/s 750 mmHg 50%
15:00 +30°C° 0 mm 5 m/s 750 mmHg 50%
16:00 +30°C° 0 mm 5 m/s 749 mmHg 51%
17:00 +29°C° 0 mm 4 m/s 749 mmHg 57%
18:00 +28°C° 0 mm 4 m/s 749 mmHg 64%
19:00 +26°C° 0 mm 3 m/s 748 mmHg 70%
20:00 +25°C° 0 mm 3 m/s 748 mmHg 72%
21:00 +24°C° 0 mm 3 m/s 748 mmHg 75%
22:00 +22°C° 0 mm 4 m/s 748 mmHg 77%
23:00 +21°C° 0 mm 4 m/s 748 mmHg 79%

21 Juin, Lundi

Heure Température Précipitation Vent Pression Humidité
00:00 +21°C° 0 mm 4 m/s 748 mmHg 82%
01:00 +20°C° 0 mm 4 m/s 748 mmHg 84%
02:00 +20°C° 0 mm 4 m/s 748 mmHg 85%
03:00 +20°C° 0 mm 4 m/s 748 mmHg 87%
04:00 +20°C° 0 mm 4 m/s 748 mmHg 88%
05:00 +21°C° 0 mm 4 m/s 747 mmHg 83%
06:00 +23°C° 0 mm 4 m/s 747 mmHg 78%
07:00 +25°C° 0 mm 4 m/s 747 mmHg 73%
08:00 +27°C° 0 mm 4 m/s 747 mmHg 67%
09:00 +28°C° 0 mm 4 m/s 747 mmHg 61%
10:00 +30°C° 0 mm 4 m/s 747 mmHg 56%
11:00 +30°C° 0 mm 4 m/s 747 mmHg 53%
12:00 +32°C° 0 mm 4 m/s 747 mmHg 50%
13:00 +33°C° 0 mm 4 m/s 747 mmHg 47%
14:00 +31°C° 0.1 mm 3 m/s 747 mmHg 50%
15:00 +30°C° 0.1 mm 3 m/s 747 mmHg 53%
16:00 +29°C° 0.1 mm 3 m/s 747 mmHg 56%
17:00 +28°C° 0.1 mm 2 m/s 747 mmHg 60%
18:00 +27°C° 0.1 mm 2 m/s 746 mmHg 64%
19:00 +27°C° 0.1 mm 2 m/s 746 mmHg 68%
20:00 +26°C° 0 mm 3 m/s 746 mmHg 70%
21:00 +25°C° 0 mm 3 m/s 746 mmHg 73%
22:00 +24°C° 0 mm 3 m/s 746 mmHg 75%
23:00 +24°C° 0 mm 3 m/s 746 mmHg 77%

22 Juin, Mardi

Heure Température Précipitation Vent Pression Humidité
00:00 +22°C° 0 mm 3 m/s 746 mmHg 78%
01:00 +23°C° 0 mm 2 m/s 746 mmHg 80%
02:00 +21°C° 0 mm 3 m/s 746 mmHg 82%
03:00 +21°C° 0 mm 3 m/s 746 mmHg 83%
04:00 +21°C° 0 mm 3 m/s 745 mmHg 84%
05:00 +22°C° 0.2 mm 3 m/s 746 mmHg 83%
06:00 +24°C° 0.2 mm 3 m/s 746 mmHg 81%
07:00 +24°C° 0.2 mm 3 m/s 746 mmHg 80%
08:00 +25°C° 0 mm 3 m/s 746 mmHg 77%
09:00 +26°C° 0 mm 3 m/s 747 mmHg 74%
10:00 +27°C° 0 mm 4 m/s 747 mmHg 72%
11:00 +26°C° 0.2 mm 5 m/s 747 mmHg 72%
12:00 +26°C° 0.2 mm 5 m/s 748 mmHg 73%
13:00 +24°C° 0.2 mm 6 m/s 748 mmHg 74%
14:00 +26°C° 0.1 mm 6 m/s 748 mmHg 67%
15:00 +27°C° 0.1 mm 6 m/s 748 mmHg 61%
16:00 +28°C° 0.1 mm 6 m/s 748 mmHg 55%
17:00 +27°C° 0 mm 5 m/s 749 mmHg 61%
18:00 +26°C° 0 mm 5 m/s 749 mmHg 66%
19:00 +23°C° 0 mm 5 m/s 750 mmHg 72%
20:00 +22°C° 0 mm 4 m/s 750 mmHg 78%
21:00 +20°C° 0 mm 4 m/s 750 mmHg 83%
22:00 +19°C° 0 mm 3 m/s 751 mmHg 89%
23:00 +18°C° 0 mm 3 m/s 751 mmHg 91%
Voir plus

Nous avons besoin de votre consentement

Meteoprog et ses fournisseurs de services peuvent stocker et accéder à des données personnelles telles que des cookies, des identifiants d'appareils ou d'autres technologies similaires sur votre appareil et traiter ces données pour personnaliser le contenu et les publicités, ainsi que pour fournir des fonctionnalités de médias sociaux et analyser le trafic.

  • Stocker et/ou accéder à des informations sur votre appareil

    Des cookies, des identifiants d'appareils ou d'autres informations peuvent être stockés ou accessibles sur votre appareil aux fins indiquées ci-dessus.

  • Annonces et contenus personnalisés, mesure des annonces et des contenus, connaissance de l'audience et développement de produits

    Les annonces et le contenu peuvent être personnalisés en fonction d'un profil. D'autres données peuvent être ajoutées pour mieux personnaliser les annonces et le contenu. Les performances des publicités et du contenu peuvent être mesurées. Il est possible d'obtenir des informations sur le public qui a vu les publicités et le contenu. Ces données peuvent être utilisées pour développer ou améliorer l'expérience de l'utilisateur, les systèmes et les logiciels.

En cliquant sur "J'accepte", vous autorisez l'utilisation de cookies, des identifiants d'appareils, des balises web ou d'autres technologies similaires. Vos paramètres peuvent être modifiés dans le navigateur de votre appareil.

Dans certains cas, des intérêts légitimes peuvent être invoqués plutôt qu'un consentement. Vous pouvez en savoir plus à ce sujet dans notre Politique de confidentialité et de cookies.